AirNav   Air Wisconsin Up To $57,000 Bonus
 
 1063 users online  

X04 Orlando Apopka Airport
Apopka, Florida, USA

GOING TO APOPKA?


FAA INFORMATION EFFECTIVE 11 AUGUST 2022

Location

FAA Identifier: X04
Lat/Long: 28-42-26.9079N 081-34-55.0722W
28-42.448465N 081-34.917870W
28.7074744,-81.5819645
(estimated)
Elevation: 150 ft. / 46 m (estimated)
Variation: 06W (2015)
From city: 4 miles NW of APOPKA, FL
Time zone: UTC -4 (UTC -5 during Standard Time)
Zip code: 32798

Airport Operations

Airport use: Open to the public
Control tower: no
ARTCC: JACKSONVILLE CENTER
FSS: SAINT PETERSBURG FLIGHT SERVICE STATION
NOTAMs facility: PIE (NOTAM-D service available)
Attendance: 0800-1800
Wind indicator: lighted
Segmented circle: yes
Lights: PAPI 15 & 33 ON CONT DURG DALGT. AFTER SS, ACTVT PAPI RWY 15 & 33; LIRL RWY 15/33 - CTAF.
Beacon: white-green (lighted land airport)
Operates sunset to sunrise.

Airport Communications

CTAF/UNICOM: 123.05
ORLANDO APPROACH: 135.3
ORLANDO DEPARTURE: 135.3
GOOFY STAR: 124.8 128.375
WX ASOS at LEE (14 nm NW): PHONE 352-787-1565
WX ASOS at ORL (16 nm SE): 127.25 (407-658-6753)
WX ASOS at SFB (19 nm E): 125.975 (407-321-9384)

Nearby radio navigation aids

VOR radial/distance  VOR name  Freq  Var
ORLr307/16.3ORLANDO VORTAC112.2000E

Airport Services

Fuel available: 100LL JET-A
Parking: hangars and tiedowns
Airframe service: MAJOR
Powerplant service: MAJOR
Bottled oxygen: LOW
Bulk oxygen: LOW

Runway Information

Runway 15/33

Dimensions: 3987 x 60 ft. / 1215 x 18 m
Surface: asphalt, in fair condition
Runway edge lights: low intensity
RUNWAY 15  RUNWAY 33
Latitude: 28-42.728160N28-42.168770N
Longitude: 081-35.114220W081-34.721520W
Elevation: 142.2 ft.125.2 ft.
Traffic pattern: rightleft
Displaced threshold: 943 ft.no
Declared distances: TORA:3987 TODA:3987 ASDA:3987 LDA:3044TODA:3987 ASDA:3987 LDA:3987
Markings: basic, in fair conditionbasic, in fair condition
Visual slope indicator: 2-light PAPI on left (3.50 degrees glide path)2-light PAPI on left (3.00 degrees glide path)
Touchdown point: yes, no lightsyes, no lights
Obstructions: 10 ft. berm, 200 ft. from runway, 125 ft. left of centerline, 1:1 slope to clear
RWY 15 HAS 10 FT BERM 200 FT FM RWY END 125 FT LEFT.
26 ft. tree, 1208 ft. from runway, 41 ft. right of centerline, 40:1 slope to clear

Airport Ownership and Management from official FAA records

Ownership: Privately-owned
Owner: ORLANDO APOPKA ARPT CONDO ASSOC.
882 JACKSON AVE., REGISTERED AGENT
WINTER PARK, FL 32789
Phone 407-647-2622
Manager: BOB JACKSON
1321 APOPKA AIRPORT RD HANGAR 37
APOPKA, FL 32712
Phone 407-308-5904

Airport Operational Statistics

Aircraft based on the field: 249
Single engine airplanes: 196
Multi engine airplanes: 32
Jet airplanes: 3
Helicopters: 4
Gliders airplanes: 2
Ultralights: 12
    
Aircraft operations: avg 91/day *
88% local general aviation
11% transient general aviation
<1% air taxi
* for 12-month period ending 17 August 2018

Additional Remarks

STEEP DROPOFF 63 FT FM SE END & APRXLY 60 FT OFF WEST & EAST EDGE.
RY 15/33 RR PENETRATES 7:1 TRANS SFC EAST SIDE.
CTC UNICOM OR 407-308-5904 FOR SAFETY BRIEFING.
RY 15/33 CLSD TO TOUCH AND GO LNDGS BY TRANSIENT HELICOPTERS.
FOR CD OR TO CNL IFR CTC ORLANDO APCH AT 407-825-3398.
ACTVT AUTOMATED UNICOM - CTAF
ACFT HLDG SHRT RWY 15 MAY BE UNA TO SEE ACFT ON FINAL FOR RWY 15.

Instrument Procedures

NOTE: All procedures below are presented as PDF files. If you need a reader for these files, you should download the free Adobe Reader.

NOT FOR NAVIGATION. Please procure official charts for flight.
FAA instrument procedures published for use from 11 August 2022 at 0901Z to 08 September 2022 at 0900z.

 
STARs - Standard Terminal Arrivals
GOOFY SEVEN   download (267KB)
 
IAPs - Instrument Approach Procedures
RNAV (GPS)-A   download (213KB)
RNAV (GPS)-B   download (189KB)
NOTE: Special Take-Off Minimums/Departure Procedures apply   download (162KB)

Other nearby airports with instrument procedures:

X23 - Umatilla Municipal Airport (14 nm N)
KLEE - Leesburg International Airport (14 nm NW)
KORL - Executive Airport (16 nm SE)
KSFB - Orlando Sanford International Airport (19 nm E)
KMCO - Orlando International Airport (22 nm SE)
 
Loc | Ops | Rwys | IFR | FBO | Links
Com | Nav | Svcs | Stats | Notes


 
Area around X04 (Orlando Apopka Airport)
 
Road maps at: MapQuest Bing Google
 
Aerial photo
WARNING: Photo may not be current or correct
Aerial photo of X04 (Orlando Apopka Airport)
Photo by Jim Hobart of MacBethPhoto.com
Photo taken 14-Jul-2011
looking northwest.

Do you have a better or more recent aerial photo of Orlando Apopka Airport that you would like to share? If so, please send us your photo.

 
Sectional chart

 
Airport distance calculator
Flying to Orlando Apopka Airport? Find the distance to fly.

From to X04

Sunrise and sunset
Times for 11-Aug-2022
 Local
(UTC-4)
 Zulu
(UTC)
Morning civil twilight06:2910:29
Sunrise06:5410:54
Sunset20:0900:09
Evening civil twilight20:3400:34

Current date and time
Zulu (UTC)  11-Aug-2022 12:46:08
Local (UTC-4)  11-Aug-2022 08:46:08
 
METAR
KLEE 
14nm NW 
111153Z 16005KT 10SM CLR 27/25 A3013 RMK AO2 SLP201 7//// T02720250 10278 20261 53006
KORL 
16nm SE 
111153Z 17003KT 10SM FEW017 27/25 A3012 RMK AO2 SLP202 T02720250 10272 20267 51006
KSFB 
20nm E 
111153Z 18003KT 10SM SCT017 26/25 A3012 RMK AO2 SLP199 T02610250 10267 20256 53005
KMCO 
22nm SE 
111153Z 16003KT 10SM SCT020 BKN250 26/24 A3012 RMK AO2 SLP199 T02610244 10267 20250 53007
KISM 
27nm S 
111220Z 16003KT 10SM SCT016 26/24 A3014 RMK AO2 PNO $
KDED 
27nm NE 
111230Z AUTO 15003KT 10SM SCT016 26/25 A3013 RMK AO2 T02630247
TAF
KLEE 
14nm NW 
111126Z 1112/1212 16004KT P6SM FEW050 FM111400 18005KT P6SM SCT035 SCT250 FM112100 21006KT P6SM VCTS SCT040CB FM120200 20003KT P6SM SCT040 SCT250
KSFB 
20nm E 
111126Z 1112/1212 19004KT P6SM SKC FM111400 18005KT P6SM SCT035 SCT250 FM112000 13008KT P6SM VCTS SCT040CB FM120000 12006KT P6SM SCT040 SCT250 FM120200 17004KT P6SM SCT250
NOTAMs
Click for the latest NOTAMs
NOTAMs are issued by the DoD/FAA and will open in a separate window not controlled by AirNav.

 

 
 

FBO, Fuel Providers, and Aircraft Ground Support

  
 Business Name 
 
 Contact 
 
 Services / Description 
 
Fuel Prices
 
Comments
  
First Landings Aviation 407-886-7612
no information available

If you are affiliated with First Landings Aviation and would like to show here your services, contact info, web link, logo, and more, click here
100LL Jet A
SS $6.79 $6.99 
 Updated 03-Aug-2022
 
   write
SS=Self service
Update Fuel Prices
 

Aviation Businesses, Services, and Facilities

  
 Business Name 
 
 Contact 
 
 Services / Description 
 
Distance
 
Comments
  
NextHome Arrowsmith Realty 407-712-4071
407-992-8955
[web site]
[email]
Hangar leasing / sales

More info about NextHome Arrowsmith Realty
on airport  
   write
 

Would you like to see your business listed on this page?

 If your business provides an interesting product or service to pilots, flight crews, aircraft, or users of the Orlando Apopka Airport, you should consider listing it here.  To start the listing process, click on the button below
 
Add a business
 

Other Pages about Orlando Apopka Airport

www.flx04.org
 
Update a link
 
Copyright © AirNav, LLC. All rights reserved. Privacy Policy  Contact